Location: Lombard
(41.8800°N, 88.0080°W)
Time: 05:50:43
(UTC-05:00)

Vanguard 2 Rocket - Pass Details

Date: 28 February 2024
Orbit: 555 x 3307 km, 32.9° (Epoch: 13 April)

Event Time Altitude Azimuth Distance (km) Brightness Sun altitude
Rises 15:16:20 0° 257° (WSW) 4,243 11.4 23.7°
Reaches altitude 10° 15:18:46 10° 253° (WSW) 3,553 11.5 23.4°
Maximum altitude 15:28:08 57° 178° (S) 2,385 9.6 21.9°
Drops below altitude 10° 15:44:10 10° 106° (ESE) 5,820 10.7 19.4°
Sets 15:49:25 0° 103° (ESE) 7,084 11.0 18.6°
